Time,TemperatureF,DewpointF,PressureIn,WindDirection,WindDirectionDegrees,WindSpeedMPH,WindSpeedGustMPH,Humidity,HourlyPrecipIn,Conditions,Clouds,dailyrainin,SoftwareType,DateUTC
2013-11-16 00:04:00,35.8,29.3,29.57,SSW,211,5.0,5.0,77,0.00,,,0.00,Wunderground v.1.15,2013-11-16 08:04:00,
2013-11-16 00:09:00,35.9,29.4,29.57,South,169,5.0,5.0,77,0.00,,,0.00,Wunderground v.1.15,2013-11-16 08:09:00,
2013-11-16 00:19:00,35.9,29.4,29.54,SE,136,5.0,5.0,77,0.00,,,0.00,Wunderground v.1.15,2013-11-16 08:19:00,
2013-11-16 00:29:00,36.0,29.8,29.54,SW,223,6.0,6.0,78,0.00,,,0.00,Wunderground v.1.15,2013-11-16 08:29:00,
2013-11-16 00:39:00,35.8,29.6,29.53,South,190,5.0,6.0,78,0.00,,,0.00,Wunderground v.1.15,2013-11-16 08:39:00,
2013-11-16 00:49:00,35.8,29.6,29.53,SSW,210,6.0,10.0,78,0.00,,,0.00,Wunderground v.1.15,2013-11-16 08:49:00,
2013-11-16 01:03:00,35.6,29.7,29.52,SSW,194,5.0,5.0,79,0.00,,,0.00,Wunderground v.1.15,2013-11-16 09:03:00,
2013-11-16 01:09:00,35.6,29.7,29.51,WSW,249,5.0,5.0,79,0.00,,,0.00,Wunderground v.1.15,2013-11-16 09:09:00,
2013-11-16 01:19:00,35.5,29.6,29.51,SW,219,6.0,6.0,79,0.00,,,0.00,Wunderground v.1.15,2013-11-16 09:19:00,
2013-11-16 01:29:00,35.5,29.6,29.50,SW,230,6.0,6.0,79,0.00,,,0.00,Wunderground v.1.15,2013-11-16 09:29:00,
2013-11-16 01:39:00,35.4,29.5,29.50,South,180,5.0,8.0,79,0.00,,,0.00,Wunderground v.1.15,2013-11-16 09:39:00,
2013-11-16 01:49:00,35.6,29.7,29.48,SSW,209,6.0,6.0,79,0.00,,,0.00,Wunderground v.1.15,2013-11-16 09:49:00,
2013-11-16 02:04:00,35.8,29.9,29.48,WSW,242,6.0,12.0,79,0.00,,,0.00,Wunderground v.1.15,2013-11-16 10:04:00,
2013-11-16 02:09:00,35.8,29.9,29.48,South,181,7.0,12.0,79,0.00,,,0.00,Wunderground v.1.15,2013-11-16 10:09:00,
2013-11-16 02:19:00,35.9,30.0,29.48,SSW,205,6.0,6.0,79,0.00,,,0.00,Wunderground v.1.15,2013-11-16 10:19:00,
2013-11-16 02:29:00,36.2,30.3,29.48,SW,216,7.0,15.0,79,0.00,,,0.00,Wunderground v.1.15,2013-11-16 10:29:00,
2013-11-16 02:39:00,36.3,30.7,29.47,SW,232,8.0,8.0,80,0.00,,,0.00,Wunderground v.1.15,2013-11-16 10:39:00,
2013-11-16 02:49:00,36.5,30.9,29.47,SW,220,9.0,9.0,80,0.00,,,0.00,Wunderground v.1.15,2013-11-16 10:49:00,
2013-11-16 03:04:00,36.7,31.1,29.46,SW,218,10.0,10.0,80,0.00,,,0.00,Wunderground v.1.15,2013-11-16 11:04:00,
2013-11-16 03:09:00,36.8,31.2,29.45,SW,227,10.0,10.0,80,0.00,,,0.00,Wunderground v.1.15,2013-11-16 11:09:00,
2013-11-16 03:23:00,36.9,31.3,29.46,SSW,213,10.0,17.0,80,0.00,,,0.00,Wunderground v.1.15,2013-11-16 11:23:00,
2013-11-16 03:29:00,37.1,31.5,29.45,WSW,250,12.0,17.0,80,0.00,,,0.00,Wunderground v.1.15,2013-11-16 11:29:00,
2013-11-16 03:39:00,37.1,31.5,29.46,WSW,240,10.0,10.0,80,0.00,,,0.00,Wunderground v.1.15,2013-11-16 11:39:00,
2013-11-16 03:53:00,37.1,32.1,29.47,NNE,32,12.0,12.0,82,0.00,,,0.00,Wunderground v.1.15,2013-11-16 11:53:00,
2013-11-16 04:03:00,36.8,32.1,29.47,SW,221,8.0,10.0,83,0.00,,,0.00,Wunderground v.1.15,2013-11-16 12:03:00,
2013-11-16 04:09:00,36.6,31.9,29.47,SSW,204,8.0,13.0,83,0.00,,,0.00,Wunderground v.1.15,2013-11-16 12:09:00,
2013-11-16 04:19:00,36.6,31.9,29.47,SW,229,9.0,16.0,83,0.00,,,0.00,Wunderground v.1.15,2013-11-16 12:19:00,
2013-11-16 04:29:00,36.4,32.3,29.48,SSW,212,11.0,19.0,85,0.00,,,0.00,Wunderground v.1.15,2013-11-16 12:29:00,
2013-11-16 04:39:00,36.2,32.1,29.48,South,183,10.0,15.0,85,0.00,,,0.00,Wunderground v.1.15,2013-11-16 12:39:00,
2013-11-16 04:49:00,36.2,31.8,29.48,SW,234,10.0,13.0,84,0.00,,,0.00,Wunderground v.1.15,2013-11-16 12:49:00,
2013-11-16 05:03:00,36.1,31.7,29.47,SW,229,11.0,17.0,84,0.00,,,0.00,Wunderground v.1.15,2013-11-16 13:03:00,
2013-11-16 05:09:00,36.2,31.8,29.47,SW,218,10.0,17.0,84,0.00,,,0.00,Wunderground v.1.15,2013-11-16 13:09:00,
2013-11-16 05:19:00,35.9,31.8,29.47,SW,223,10.0,13.0,85,0.00,,,0.00,Wunderground v.1.15,2013-11-16 13:19:00,
2013-11-16 05:29:00,35.9,31.8,29.48,WSW,242,10.0,13.0,85,0.00,,,0.00,Wunderground v.1.15,2013-11-16 13:29:00,
2013-11-16 05:39:00,35.7,31.9,29.48,SSW,207,10.0,10.0,86,0.00,,,0.00,Wunderground v.1.15,2013-11-16 13:39:00,
2013-11-16 05:49:00,35.7,31.9,29.48,SSW,197,9.0,9.0,86,0.00,,,0.00,Wunderground v.1.15,2013-11-16 13:49:00,
2013-11-16 06:04:00,35.3,32.1,29.48,WSW,238,8.0,8.0,88,0.00,,,0.00,Wunderground v.1.15,2013-11-16 14:04:00,
2013-11-16 06:09:00,35.2,32.0,29.48,SE,128,8.0,8.0,88,0.00,,,0.00,Wunderground v.1.15,2013-11-16 14:09:00,
2013-11-16 06:19:00,35.2,31.7,29.48,WSW,244,8.0,10.0,87,0.00,,,0.01,Wunderground v.1.15,2013-11-16 14:19:00,
2013-11-16 06:29:00,35.6,31.2,29.49,SSW,212,10.0,10.0,84,0.00,,,0.01,Wunderground v.1.15,2013-11-16 14:29:00,
2013-11-16 06:39:00,35.8,31.1,29.49,SW,227,10.0,10.0,83,0.00,,,0.01,Wunderground v.1.15,2013-11-16 14:39:00,
2013-11-16 06:49:00,36.0,31.0,29.50,South,189,10.0,10.0,82,0.00,,,0.01,Wunderground v.1.15,2013-11-16 14:49:00,
2013-11-16 06:59:00,35.8,31.1,29.50,WSW,252,8.0,24.0,83,0.00,,,0.01,Wunderground v.1.15,2013-11-16 14:59:00,
2013-11-16 07:09:00,35.9,30.6,29.50,SW,224,11.0,11.0,81,0.00,,,0.01,Wunderground v.1.15,2013-11-16 15:09:00,
2013-11-16 07:23:00,35.6,30.3,29.49,SSW,213,11.0,12.0,81,0.00,,,0.01,Wunderground v.1.15,2013-11-16 15:23:00,
2013-11-16 07:29:00,35.6,30.0,29.50,SW,233,10.0,12.0,80,0.00,,,0.01,Wunderground v.1.15,2013-11-16 15:29:00,
2013-11-16 07:39:00,35.7,30.1,29.49,SW,221,10.0,13.0,80,0.00,,,0.01,Wunderground v.1.15,2013-11-16 15:39:00,
2013-11-16 07:49:00,35.7,30.1,29.50,SW,229,11.0,17.0,80,0.00,,,0.01,Wunderground v.1.15,2013-11-16 15:49:00,
2013-11-16 08:04:00,36.4,29.9,29.51,West,280,10.0,10.0,77,0.00,,,0.01,Wunderground v.1.15,2013-11-16 16:04:00,
2013-11-16 08:09:00,36.7,30.5,29.52,SW,219,9.0,10.0,78,0.00,,,0.01,Wunderground v.1.15,2013-11-16 16:09:00,
2013-11-16 08:19:00,36.6,30.7,29.53,North,355,4.0,6.0,79,0.00,,,0.01,Wunderground v.1.15,2013-11-16 16:19:00,
2013-11-16 08:29:00,36.6,31.3,29.54,NE,46,2.0,3.0,81,0.00,,,0.01,Wunderground v.1.15,2013-11-16 16:29:00,
2013-11-16 08:39:00,36.5,31.5,29.54,SW,221,2.0,3.0,82,0.00,,,0.01,Wunderground v.1.15,2013-11-16 16:39:00,
2013-11-16 08:49:00,36.0,31.3,29.53,SSW,208,2.0,3.0,83,0.00,,,0.01,Wunderground v.1.15,2013-11-16 16:49:00,
2013-11-16 09:04:00,36.0,31.6,29.54,South,172,3.0,4.0,84,0.00,,,0.01,Wunderground v.1.15,2013-11-16 17:04:00,
2013-11-16 09:09:00,36.2,31.2,29.54,West,260,3.0,4.0,82,0.00,,,0.01,Wunderground v.1.15,2013-11-16 17:09:00,
2013-11-16 09:19:00,36.8,30.9,29.55,ESE,113,5.0,10.0,79,0.00,,,0.01,Wunderground v.1.15,2013-11-16 17:19:00,
2013-11-16 09:29:00,37.5,30.9,29.56,SSW,202,5.0,6.0,77,0.00,,,0.01,Wunderground v.1.15,2013-11-16 17:29:00,
2013-11-16 09:44:00,37.8,31.9,29.57,WNW,298,4.0,4.0,79,0.00,,,0.01,Wunderground v.1.15,2013-11-16 17:44:00,
2013-11-16 09:49:00,37.9,32.3,29.57,WSW,240,4.0,6.0,80,0.00,,,0.01,Wunderground v.1.15,2013-11-16 17:49:00,
2013-11-16 09:59:00,38.6,31.7,29.58,SW,220,5.0,6.0,76,0.00,,,0.01,Wunderground v.1.15,2013-11-16 17:59:00,
2013-11-16 10:04:00,38.9,31.0,29.58,SW,224,6.0,6.0,73,0.00,,,0.01,Wunderground v.1.15,2013-11-16 18:04:00,
2013-11-16 10:09:00,38.9,30.6,29.58,WSW,242,6.0,6.0,72,0.00,,,0.01,Wunderground v.1.15,2013-11-16 18:09:00,
2013-11-16 10:19:00,39.3,29.6,29.59,SW,214,7.0,7.0,68,0.00,,,0.01,Wunderground v.1.15,2013-11-16 18:19:00,
2013-11-16 10:29:00,39.3,31.0,29.59,SW,223,7.0,8.0,72,0.00,,,0.01,Wunderground v.1.15,2013-11-16 18:29:00,
2013-11-16 10:39:00,39.8,31.5,29.60,SE,134,5.0,6.0,72,0.00,,,0.01,Wunderground v.1.15,2013-11-16 18:39:00,
2013-11-16 10:49:00,40.2,30.8,29.59,SW,222,5.0,8.0,69,0.00,,,0.01,Wunderground v.1.15,2013-11-16 18:49:00,
2013-11-16 11:03:00,40.6,30.5,29.60,SSW,212,5.0,5.0,67,0.00,,,0.01,Wunderground v.1.15,2013-11-16 19:03:00,
2013-11-16 11:09:00,40.1,30.4,29.60,SW,214,6.0,10.0,68,0.00,,,0.01,Wunderground v.1.15,2013-11-16 19:09:00,
2013-11-16 11:19:00,38.6,31.4,29.60,SW,219,8.0,11.0,75,0.00,,,0.01,Wunderground v.1.15,2013-11-16 19:19:00,
2013-11-16 11:29:00,36.7,32.0,29.60,SW,224,7.0,8.0,83,0.00,,,0.01,Wunderground v.1.15,2013-11-16 19:29:00,
2013-11-16 11:39:00,36.8,31.2,29.59,SW,227,8.0,9.0,80,0.00,,,0.01,Wunderground v.1.15,2013-11-16 19:39:00,
2013-11-16 11:49:00,37.3,31.1,29.59,WSW,243,8.0,16.0,78,0.00,,,0.01,Wunderground v.1.15,2013-11-16 19:49:00,
2013-11-16 12:03:00,35.9,31.5,29.60,SSW,208,5.0,5.0,84,0.00,,,0.01,Wunderground v.1.15,2013-11-16 20:03:00,
2013-11-16 12:09:00,36.1,31.4,29.61,SW,218,6.0,6.0,83,0.00,,,0.01,Wunderground v.1.15,2013-11-16 20:09:00,
2013-11-16 12:18:00,35.5,31.4,29.61,SW,228,8.0,9.0,85,0.00,,,0.01,Wunderground v.1.15,2013-11-16 20:18:00,
2013-11-16 12:24:00,34.8,31.3,29.60,West,259,7.0,7.0,87,0.00,,,0.01,Wunderground v.1.15,2013-11-16 20:24:00,
2013-11-16 12:29:00,34.5,31.3,29.61,SE,140,7.0,7.0,88,0.00,,,0.01,Wunderground v.1.15,2013-11-16 20:29:00,
2013-11-16 12:39:00,35.2,31.4,29.60,WSW,240,5.0,6.0,86,0.00,,,0.02,Wunderground v.1.15,2013-11-16 20:39:00,
2013-11-16 12:49:00,36.1,31.4,29.60,SW,221,7.0,12.0,83,0.00,,,0.02,Wunderground v.1.15,2013-11-16 20:49:00,
2013-11-16 13:03:00,36.8,31.2,29.61,SSW,204,7.0,7.0,80,0.00,,,0.02,Wunderground v.1.15,2013-11-16 21:03:00,
2013-11-16 13:09:00,36.5,31.5,29.62,WSW,239,7.0,7.0,82,0.00,,,0.02,Wunderground v.1.15,2013-11-16 21:09:00,
2013-11-16 13:19:00,36.1,31.4,29.62,WSW,248,7.0,8.0,83,0.00,,,0.02,Wunderground v.1.15,2013-11-16 21:19:00,
2013-11-16 13:29:00,36.4,31.7,29.60,WSW,244,8.0,8.0,83,0.00,,,0.02,Wunderground v.1.15,2013-11-16 21:29:00,
2013-11-16 13:43:00,36.8,31.2,29.61,WSW,253,7.0,8.0,80,0.00,,,0.02,Wunderground v.1.15,2013-11-16 21:43:00,
2013-11-16 13:54:00,36.5,31.5,29.61,SW,229,6.0,6.0,82,0.00,,,0.02,Wunderground v.1.15,2013-11-16 21:54:00,
2013-11-16 14:03:00,36.4,31.4,29.61,SW,233,6.0,8.0,82,0.00,,,0.02,Wunderground v.1.15,2013-11-16 22:03:00,
2013-11-16 14:09:00,36.7,31.1,29.61,SW,215,9.0,9.0,80,0.00,,,0.02,Wunderground v.1.15,2013-11-16 22:09:00,
2013-11-16 14:24:00,37.9,31.7,29.62,SW,234,6.0,7.0,78,0.00,,,0.02,Wunderground v.1.15,2013-11-16 22:24:00,
2013-11-16 14:29:00,37.8,30.9,29.62,WSW,244,7.0,7.0,76,0.00,,,0.02,Wunderground v.1.15,2013-11-16 22:29:00,
2013-11-16 14:39:00,37.1,31.2,29.62,SW,219,9.0,13.0,79,0.00,,,0.02,Wunderground v.1.15,2013-11-16 22:39:00,
2013-11-16 14:49:00,36.6,31.0,29.62,WSW,238,8.0,9.0,80,0.00,,,0.02,Wunderground v.1.15,2013-11-16 22:49:00,
2013-11-16 15:03:00,36.6,31.0,29.63,SE,143,5.0,5.0,80,0.00,,,0.02,Wunderground v.1.15,2013-11-16 23:03:00,
2013-11-16 15:09:00,36.7,30.8,29.63,East,94,5.0,5.0,79,0.00,,,0.02,Wunderground v.1.15,2013-11-16 23:09:00,
2013-11-16 15:19:00,36.8,31.2,29.64,SW,219,5.0,12.0,80,0.00,,,0.02,Wunderground v.1.15,2013-11-16 23:19:00,
2013-11-16 15:33:00,36.5,30.6,29.64,WSW,242,8.0,8.0,79,0.00,,,0.02,Wunderground v.1.15,2013-11-16 23:33:00,
2013-11-16 15:39:00,36.4,30.5,29.64,SW,229,8.0,8.0,79,0.00,,,0.02,Wunderground v.1.15,2013-11-16 23:39:00,
2013-11-16 15:49:00,36.3,29.8,29.64,SW,230,7.0,8.0,77,0.00,,,0.02,Wunderground v.1.15,2013-11-16 23:49:00,
2013-11-16 16:03:00,36.4,30.5,29.65,WSW,240,6.0,7.0,79,0.00,,,0.02,Wunderground v.1.15,2013-11-17 00:03:00,
2013-11-16 16:09:00,36.3,30.7,29.65,SW,232,5.0,7.0,80,0.00,,,0.02,Wunderground v.1.15,2013-11-17 00:09:00,
2013-11-16 16:19:00,36.0,31.0,29.65,SW,223,4.0,7.0,82,0.00,,,0.02,Wunderground v.1.15,2013-11-17 00:19:00,
2013-11-16 16:29:00,35.3,31.5,29.66,SW,225,4.0,5.0,86,0.00,,,0.02,Wunderground v.1.15,2013-11-17 00:29:00,
2013-11-16 16:39:00,34.5,31.3,29.66,SW,219,4.0,5.0,88,0.00,,,0.02,Wunderground v.1.15,2013-11-17 00:39:00,
2013-11-16 16:54:00,34.3,31.4,29.66,SW,217,3.0,3.0,89,0.00,,,0.02,Wunderground v.1.15,2013-11-17 00:54:00,
2013-11-16 17:03:00,34.0,31.6,29.66,SSW,194,1.0,1.0,91,0.00,,,0.02,Wunderground v.1.15,2013-11-17 01:03:00,
2013-11-16 17:09:00,33.9,31.6,29.66,SSW,194,1.0,1.0,91,0.00,,,0.02,Wunderground v.1.15,2013-11-17 01:09:00,
2013-11-16 17:19:00,33.8,31.7,29.66,SSW,194,1.0,2.0,92,0.00,,,0.02,Wunderground v.1.15,2013-11-17 01:19:00,
2013-11-16 17:29:00,33.7,31.4,29.66,SSW,194,2.0,2.0,91,0.00,,,0.02,Wunderground v.1.15,2013-11-17 01:29:00,
2013-11-16 17:39:00,33.9,31.3,29.67,SSW,209,3.0,6.0,90,0.00,,,0.02,Wunderground v.1.15,2013-11-17 01:39:00,
2013-11-16 17:49:00,33.9,31.3,29.67,West,279,2.0,4.0,90,0.00,,,0.02,Wunderground v.1.15,2013-11-17 01:49:00,
2013-11-16 18:03:00,34.1,31.2,29.68,WSW,246,2.0,3.0,89,0.00,,,0.02,Wunderground v.1.15,2013-11-17 02:03:00,
2013-11-16 18:09:00,34.0,31.1,29.68,SW,229,3.0,7.0,89,0.00,,,0.02,Wunderground v.1.15,2013-11-17 02:09:00,
2013-11-16 18:19:00,34.2,31.0,29.68,SW,220,4.0,6.0,88,0.00,,,0.02,Wunderground v.1.15,2013-11-17 02:19:00,
2013-11-16 18:29:00,34.5,30.7,29.68,WSW,240,5.0,10.0,86,0.00,,,0.02,Wunderground v.1.15,2013-11-17 02:29:00,
2013-11-16 18:39:00,34.5,30.5,29.69,SW,216,7.0,7.0,85,0.00,,,0.02,Wunderground v.1.15,2013-11-17 02:39:00,
2013-11-16 18:49:00,34.4,30.6,29.69,SW,220,5.0,7.0,86,0.00,,,0.02,Wunderground v.1.15,2013-11-17 02:49:00,
2013-11-16 19:03:00,34.1,30.6,29.69,SSW,202,2.0,6.0,87,0.00,,,0.02,Wunderground v.1.15,2013-11-17 03:03:00,
2013-11-16 19:08:00,34.0,30.5,29.69,South,177,3.0,6.0,87,0.00,,,0.02,Wunderground v.1.15,2013-11-17 03:08:00,
2013-11-16 19:14:00,33.8,30.3,29.69,SW,236,4.0,4.0,87,0.00,,,0.02,Wunderground v.1.15,2013-11-17 03:14:00,
2013-11-16 19:19:00,33.7,30.2,29.69,SSW,213,4.0,4.0,87,0.00,,,0.02,Wunderground v.1.15,2013-11-17 03:19:00,
2013-11-16 19:29:00,33.5,30.0,29.70,SSE,163,3.0,4.0,87,0.00,,,0.02,Wunderground v.1.15,2013-11-17 03:29:00,
2013-11-16 19:43:00,33.6,30.1,29.70,SSE,158,3.0,3.0,87,0.00,,,0.02,Wunderground v.1.15,2013-11-17 03:43:00,
2013-11-16 19:49:00,33.6,30.1,29.70,SW,217,3.0,3.0,87,0.00,,,0.02,Wunderground v.1.15,2013-11-17 03:49:00,
2013-11-16 20:03:00,33.6,30.1,29.71,WSW,238,2.0,3.0,87,0.00,,,0.02,Wunderground v.1.15,2013-11-17 04:03:00,
2013-11-16 20:13:00,33.7,30.5,29.70,WSW,238,2.0,4.0,88,0.00,,,0.02,Wunderground v.1.15,2013-11-17 04:13:00,
2013-11-16 20:18:00,33.7,30.2,29.71,South,187,3.0,4.0,87,0.00,,,0.02,Wunderground v.1.15,2013-11-17 04:18:00,
2013-11-16 20:24:00,33.9,30.2,29.71,SW,227,3.0,3.0,86,0.00,,,0.02,Wunderground v.1.15,2013-11-17 04:24:00,
2013-11-16 20:29:00,34.2,30.2,29.71,South,182,5.0,5.0,85,0.00,,,0.02,Wunderground v.1.15,2013-11-17 04:29:00,
2013-11-16 20:38:00,34.2,30.2,29.72,South,174,4.0,4.0,85,0.00,,,0.02,Wunderground v.1.15,2013-11-17 04:38:00,
2013-11-16 20:43:00,34.1,30.6,29.71,South,178,4.0,4.0,87,0.00,,,0.02,Wunderground v.1.15,2013-11-17 04:43:00,
2013-11-16 20:48:00,33.9,30.4,29.72,South,185,4.0,4.0,87,0.00,,,0.02,Wunderground v.1.15,2013-11-17 04:48:00,
2013-11-16 20:58:00,33.8,30.9,29.72,SSW,195,4.0,4.0,89,0.00,,,0.02,Wunderground v.1.15,2013-11-17 04:58:00,
2013-11-16 21:03:00,33.7,30.8,29.73,SW,227,4.0,4.0,89,0.00,,,0.02,Wunderground v.1.15,2013-11-17 05:03:00,
2013-11-16 21:09:00,33.7,30.8,29.72,South,182,3.0,5.0,89,0.00,,,0.02,Wunderground v.1.15,2013-11-17 05:09:00,
2013-11-16 21:13:00,33.8,30.6,29.72,SW,229,5.0,5.0,88,0.00,,,0.02,Wunderground v.1.15,2013-11-17 05:13:00,
2013-11-16 21:19:00,33.9,30.4,29.73,SSW,198,5.0,8.0,87,0.00,,,0.02,Wunderground v.1.15,2013-11-17 05:19:00,
2013-11-16 21:23:00,34.0,30.5,29.73,South,191,5.0,8.0,87,0.00,,,0.02,Wunderground v.1.15,2013-11-17 05:23:00,
2013-11-16 21:29:00,34.1,30.4,29.73,South,171,5.0,5.0,86,0.00,,,0.02,Wunderground v.1.15,2013-11-17 05:29:00,
2013-11-16 21:39:00,34.2,30.2,29.73,SSW,195,4.0,4.0,85,0.00,,,0.02,Wunderground v.1.15,2013-11-17 05:39:00,
2013-11-16 21:49:00,34.1,30.6,29.73,SSW,196,5.0,7.0,87,0.00,,,0.02,Wunderground v.1.15,2013-11-17 05:49:00,
2013-11-16 22:03:00,34.0,30.5,29.74,South,177,4.0,4.0,87,0.00,,,0.02,Wunderground v.1.15,2013-11-17 06:03:00,
2013-11-16 22:09:00,34.1,30.6,29.74,South,170,5.0,6.0,87,0.00,,,0.02,Wunderground v.1.15,2013-11-17 06:09:00,
2013-11-16 22:19:00,34.2,30.4,29.75,SSW,198,6.0,6.0,86,0.00,,,0.02,Wunderground v.1.15,2013-11-17 06:19:00,
2013-11-16 22:23:00,34.2,30.7,29.75,South,170,6.0,6.0,87,0.00,,,0.02,Wunderground v.1.15,2013-11-17 06:23:00,
2013-11-16 22:29:00,34.1,30.6,29.75,ESE,123,6.0,6.0,87,0.00,,,0.02,Wunderground v.1.15,2013-11-17 06:29:00,
2013-11-16 22:39:00,34.1,30.4,29.76,SE,127,4.0,5.0,86,0.00,,,0.02,Wunderground v.1.15,2013-11-17 06:39:00,
2013-11-16 22:48:00,34.2,30.4,29.76,South,173,4.0,10.0,86,0.00,,,0.02,Wunderground v.1.15,2013-11-17 06:48:00,
2013-11-16 22:53:00,34.1,30.6,29.76,South,169,5.0,6.0,87,0.00,,,0.02,Wunderground v.1.15,2013-11-17 06:53:00,
2013-11-16 23:03:00,34.1,30.4,29.76,SSE,168,6.0,6.0,86,0.00,,,0.02,Wunderground v.1.15,2013-11-17 07:03:00,
2013-11-16 23:09:00,34.2,30.4,29.77,South,169,5.0,6.0,86,0.00,,,0.02,Wunderground v.1.15,2013-11-17 07:09:00,
2013-11-16 23:19:00,34.1,30.4,29.77,SSW,202,6.0,6.0,86,0.00,,,0.02,Wunderground v.1.15,2013-11-17 07:19:00,
2013-11-16 23:29:00,33.9,30.4,29.78,SE,132,5.0,6.0,87,0.00,,,0.02,Wunderground v.1.15,2013-11-17 07:29:00,
2013-11-16 23:39:00,33.8,30.3,29.78,South,188,5.0,6.0,87,0.00,,,0.02,Wunderground v.1.15,2013-11-17 07:39:00,
2013-11-16 23:49:00,33.7,30.5,29.79,SSE,161,5.0,5.0,88,0.00,,,0.02,Wunderground v.1.15,2013-11-17 07:49:00,